Regional Weather Roundup
Issued by NWS

Home | Current Version | Previous Version | Graphics & Text | Print | Product List | Glossary Off
Versions: 1 2 3 4 5 6 7 8 9 10 11 12 13 14 15 16 17 18 19 20 21 22 23 24 25 26 27 28 29 30 31 32 33 34 35 36 37 38 39 40 41 42 43 44 45 46 47 48 49 50

000
ASUS43 KDMX 031307
RWRIA

WEATHER ROUNDUP FOR IOWA
NATIONAL WEATHER SERVICE DES MOINES IA
800 AM CDT THU SEP 03 2015

NOTE: "FAIR" INDICATES FEW OR NO CLOUDS BELOW 12,000 FEET WITH NO
SIGNIFICANT WEATHER AND/OR OBSTRUCTIONS TO VISIBILITY.

* - THESE STATIONS ARE NOT NWS STATIONS...THUS NOT UNDER NWS
QUALITY CONTROL.  THEY ALSO DO NOT REPORT WEATHER SUCH
AS PRECIPITATION OR FOG.

IAZ001>003-012>014-020>022-031>034-043>046-031400-
   NORTHWEST IOWA

CITY           SKY/WX    TMP DP  RH WIND       PRES   REMARKS
CARROLL *      SUNNY     72  72 100 S5        29.90R
CHEROKEE *     SUNNY     70  70 100 S3        29.87S
DENISON *      SUNNY     72  68  88 S8G14     29.87R
LE MARS *      SUNNY     72  70  94 S6        29.85S
ORANGE CITY *  SUNNY     70  68  94 SE5       29.86S
SHELDON *      SUNNY     70  68  94 SE7       29.86R
SIOUX CITY     SUNNY     70  65  84 SE7       29.84R
SPENCER        SUNNY     70  67  90 SE7       29.88S FOG
STORM LAKE *   SUNNY     70  68  94 SE7       29.90R
$$

IAZ055>058-069>071-079>083-090>094-031400-
   SOUTHWEST IOWA

CITY           SKY/WX    TMP DP  RH WIND       PRES   REMARKS
ATLANTIC *     CLOUDY    73  70  88 S7        29.89S
AUDUBON *      MOSUNNY   72  68  88 CALM      29.91S
CLARINDA *     PTSUNNY   73  70  88 S7        29.92S
COUNCIL BLFS * MOSUNNY   72  68  88 S8        29.88R
CRESTON *      PTSUNNY   72  68  88 S12       29.94S
LAMONI         PTSUNNY   72  69  90 S9        29.94S
RED OAK *      MOSUNNY   73  70  88 S6        29.89S
SHENANDOAH *   PTSUNNY   73  70  88 S6        29.90R
$$

IAZ047>049-059>061-072>074-084-031400-
   CENTRAL IOWA

CITY           SKY/WX    TMP DP  RH WIND       PRES   REMARKS
AMES           SUNNY     71  69  93 SE5       29.92R FOG
ANKENY *       SUNNY     73  72  94 SE5       29.91S
CHARITON *     CLOUDY    73  70  88 S6        29.95R
DES MOINES     PTSUNNY   74  69  85 S6        29.91R
GRINNELL*      MOSUNNY   73  68  83 S6        29.94S
KNOXVILLE *    MOSUNNY   73  68  83 S9        29.92S
MARSHALLTOWN   SUNNY     70  69  97 SE3       29.93R FOG
PELLA *        MOSUNNY   73  72  94 S5        29.94S
PERRY *          N/A     72  72 100 SE3       29.90S
$$

IAZ004>006-015-016-023>025-035-036-031400-
   NORTH CENTRAL IOWA

CITY           SKY/WX    TMP DP  RH WIND       PRES   REMARKS
ALGONA *       SUNNY     72  68  88 S9        29.91R
CLARION *      SUNNY     72  70  94 S8        29.91F
ESTHERVILLE    SUNNY     67  67 100 S6        29.89R FOG
FORT DODGE *   SUNNY     72  66  83 SE5       29.92R
MASON CITY     SUNNY     68  67  96 SE3       29.94R FOG
FOREST CITY *  SUNNY     68  68 100 SE3       29.93R FOG
IOWA FALLS *     N/A     70  70 100 SE3       29.94S FOG
$$

IAZ007>011-017>019-026>030-037>042-050>054-066-031400-
   NORTHEAST IOWA

CITY           SKY/WX    TMP DP  RH WIND       PRES   REMARKS
CEDAR RAPIDS   MOSUNNY   72  71  97 S7        29.94S
CHARLES CITY * SUNNY     70  70 100 S5        29.94S FOG
CLINTON *      SUNNY     72  70  94 SW7       29.97F
DECORAH *      SUNNY     72  70  94 SW7       29.93S
DUBUQUE        SUNNY     70  68  93 SW7       29.95S FOG
MONTICELLO *   SUNNY     72  68  88 CALM      29.94S
OELWEIN *        N/A    N/A N/A N/A MISG        N/A
WATERLOO       SUNNY     72  69  90 S5        29.92S
$$

IAZ064-065-067-068-078-031400-
   EAST CENTRAL IOWA

CITY           SKY/WX    TMP DP  RH WIND       PRES   REMARKS
DAVENPORT      SUNNY     74  69  85 S6        29.97R
IOWA CITY      SUNNY     71  68  90 SE3       29.96S
MT. PLEASANT * SUNNY     75  70  83 S6        29.98R
MUSCATINE *      N/A     70  68  94 CALM      29.96S FOG
QUAD CITIES    MOSUNNY   75  68  78 SW5       29.96S
$$

IAZ062-063-075>077-085>089-095>099-031400-
   SOUTHEAST IOWA

CITY           SKY/WX    TMP DP  RH WIND       PRES   REMARKS
BURLINGTON     MOSUNNY   73  69  87 S6        29.98R
FAIRFIELD *    SUNNY     73  68  83 S6        29.97R
FORT MADISON * SUNNY     73  72  94 S6        29.99S
KEOKUK *       SUNNY     75  68  78 S6        29.98R
OSKALOOSA *      N/A     73  70  88 S5        29.96R
CENTERVILLE *  SUNNY     72  70  94 S5        29.98R
OTTUMWA        PTSUNNY   74  71  91 S7        29.93S
WASHINGTON *     N/A    N/A N/A N/A MISG        N/A
$$

ABBREVIATIONS USED IN REMARKS
   TC - TEMPERATURES IN CELSIUS
  WCI - WIND CHILL INDEX
   HX - HEAT INDEX
  VSB - VISIBILITY
$$



USA.gov is the U.S. government's official web portal to all federal, state and local government web resources and services.